RH
15 14 13 13 11 10 10 11 11 11 11 10 10 9 9 10 10 10 11 11 12 11 12 11 11 11 11 11 11 11 10 9 9 9 9 9 10 12 11 12 13 13 13 12 10 10 10 11 12 12 13 13 13 13 13 13 13 15 16 16 16 16 17 19 19 17 17 17 20 21 20 20 22 25 25 25 26 24 24 24 23 23 24 26 27 26 25 25
16 15 14 13 12 10 9 10 11 11 11 10 10 9 9 9 9 10 11 11 11 11 11 11 11 12 11 12 11 10 9 9 8 8 9 8 10 12 12 12 13 12 12 11 11 10 11 12 13 12 13 13 12 13 13 13 13 15 16 16 16 16 19 19 18 17 18 17 19 22 21 21 22 24 25 27 29 27 26 26 23 24 25 25 25 25 25 24
15 15 14 14 12 10 9 10 11 11 11 10 10 10 10 9 9 10 10 10 11 11 11 11 11 11 11 11 9 9 8 8 8 8 9 10 10 12 12 11 11 12 12 11 11 10 11 12 12 12 13 13 12 12 14 14 13 14 15 16 14 16 18 18 17 17 18 17 18 21 22 22 22 24 26 28 31 30 28 26 24 24 24 23 24 25 25 24
15 15 15 14 13 11 10 9 11 11 11 11 11 10 10 10 10 10 11 10 11 11 11 11 11 10 10 9 9 8 8 11 14 13 12 11 11 11 11 11 12 13 13 11 10 10 10 11 11 12 12 12 12 12 13 14 13 14 14 14 13 15 17 17 17 17 18 17 17 19 22 23 22 24 26 26 27 29 26 24 23 24 23 23 24 24 24 23
15 15 15 15 14 13 10 10 10 11 11 11 11 10 10 10 10 10 11 10 10 11 10 10 10 9 9 8 7 7 11 16 17 14 12 11 10 11 11 11 13 13 12 11 9 9 10 10 11 12 12 12 12 12 12 13 12 14 13 12 12 14 16 17 18 18 17 17 17 18 20 23 23 24 26 23 22 23 24 23 22 22 22 21 22 22 21 20
15 14 15 16 15 14 12 10 11 12 12 12 11 10 10 10 10 10 10 10 10 9 9 9 9 9 9 8 8 10 15 18 15 13 11 10 10 9 9 10 11 11 10 9 8 9 10 11 11 11 12 12 12 12 12 12 12 14 13 11 12 14 16 16 17 17 17 17 18 19 20 22 23 23 24 21 18 19 21 20 20 19 19 20 21 21 20 19
15 15 15 15 15 15 14 13 13 13 13 13 12 11 10 10 10 10 9 9 9 9 9 9 9 10 9 8 9 14 17 16 16 14 11 10 9 8 8 8 8 8 7 7 7 9 10 11 11 12 13 12 13 13 14 15 14 14 13 12 14 14 16 16 15 16 17 18 18 19 21 22 22 22 21 20 18 18 19 20 20 19 18 20 21 21 19 18
15 15 15 16 17 19 19 18 17 16 15 14 13 12 11 10 10 9 9 9 8 9 10 10 10 9 9 9 12 17 16 14 15 13 10 10 8 7 7 8 8 7 6 8 9 11 11 11 13 15 15 15 16 16 17 18 16 15 13 13 15 15 15 15 15 15 16 18 17 18 21 21 22 22 20 20 18 17 19 21 22 20 21 23 22 21 18 18
15 16 17 20 22 24 24 23 21 20 18 16 14 12 11 10 10 10 9 10 10 11 10 10 10 9 9 10 14 19 15 13 13 12 10 9 7 8 8 8 7 7 7 10 12 12 13 14 16 18 18 18 18 18 18 19 17 15 14 15 15 15 15 15 15 16 16 16 16 17 19 21 22 22 21 20 18 17 19 21 21 22 23 23 21 20 19 19
18 20 23 24 25 25 25 24 22 21 20 19 16 13 12 10 11 10 10 11 11 11 11 10 10 9 9 10 16 22 16 13 12 10 10 8 8 9 9 9 9 8 10 13 14 14 16 17 18 18 18 17 17 18 17 17 16 15 15 15 15 15 15 16 16 15 15 16 16 17 21 23 22 22 20 19 19 19 20 20 20 22 21 19 19 21 20 19
23 24 24 24 24 24 24 24 23 21 20 19 18 16 14 11 10 10 10 11 11 11 11 11 10 9 10 11 17 22 17 14 13 11 10 9 10 11 10 11 11 12 14 15 16 16 15 15 16 16 16 15 16 18 16 15 16 15 15 15 15 15 15 16 16 14 15 17 18 18 21 23 22 20 19 19 20 19 20 21 21 21 18 17 19 21 21 19
25 24 23 23 23 23 24 24 23 22 20 18 18 17 15 13 11 11 11 11 11 11 12 11 10 10 11 12 18 21 18 15 14 12 11 11 12 13 12 12 13 14 15 16 16 15 14 15 14 14 15 16 16 17 16 16 15 15 15 16 16 16 16 16 16 14 14 15 17 16 17 21 20 19 19 19 19 19 20 21 20 18 17 17 18 20 21 20
22 22 23 23 22 22 23 23 23 22 20 19 18 17 15 13 11 11 11 12 12 12 12 12 11 11 12 15 19 19 17 16 15 14 13 12 13 13 12 11 12 13 14 15 16 14 15 16 15 15 16 16 17 18 17 16 16 16 16 16 17 17 17 17 16 15 14 14 14 14 15 18 17 16 18 19 19 20 21 20 18 17 17 17 18 19 21 20
20 20 21 23 22 22 22 22 23 23 21 20 18 17 16 14 12 12 12 13 13 12 12 12 12 12 13 16 18 16 15 16 16 15 14 13 13 13 13 12 12 13 13 14 14 15 15 16 16 15 16 17 17 17 18 17 17 17 16 19 20 17 18 18 15 15 15 15 14 14 17 18 16 14 15 17 18 20 22 21 18 17 17 17 17 18 19 19
19 18 19 20 21 22 22 22 23 22 22 22 21 19 18 16 14 12 13 13 12 13 13 13 15 15 15 16 18 17 15 15 16 15 14 14 14 14 14 13 13 13 14 15 14 15 16 16 16 16 17 17 16 17 19 18 18 18 17 22 23 17 17 17 15 16 15 16 16 15 18 18 18 16 14 14 16 18 20 20 17 16 17 17 18 19 19 20
18 18 18 17 18 19 20 21 22 23 22 22 23 22 20 19 17 15 14 14 13 13 13 16 20 20 20 19 20 19 16 15 14 14 14 15 15 14 14 14 14 14 14 16 15 16 16 17 16 16 16 16 17 19 20 21 23 22 18 20 22 17 16 17 16 16 15 16 16 16 19 20 19 18 16 15 15 15 16 17 17 17 18 18 19 20 21 21
16 18 18 16 16 16 17 18 20 22 23 23 23 24 23 21 19 18 15 14 15 14 14 17 21 23 22 20 20 20 18 17 14 14 15 15 15 15 14 14 14 15 15 15 15 15 16 15 15 16 18 20 21 20 21 22 24 25 24 21 22 20 19 19 18 18 17 17 17 17 19 21 21 20 18 18 16 15 14 15 16 18 19 20 20 22 23 22
14 15 16 16 15 15 15 15 17 20 23 24 23 25 26 24 21 20 18 16 15 16 18 18 20 24 24 20 20 21 19 18 15 15 14 14 15 14 14 14 14 15 15 15 15 15 15 16 16 18 22 25 23 21 23 24 22 25 29 27 25 23 22 22 21 20 18 17 18 18 18 21 23 23 21 20 18 16 16 15 16 18 19 21 22 23 23 22
13 14 15 15 15 15 15 13 14 17 21 24 23 24 27 27 25 22 20 19 17 20 25 22 22 26 25 22 22 22 20 19 17 15 14 14 14 13 14 14 14 15 16 17 17 16 17 17 17 18 21 23 23 22 23 23 23 25 30 30 27 26 26 26 23 23 22 19 20 20 19 21 23 26 25 21 20 18 18 17 16 18 20 21 24 25 25 24
13 14 14 15 15 15 15 14 14 16 20 23 22 22 25 28 29 27 24 23 20 24 27 24 23 25 25 24 24 23 23 21 19 18 16 15 14 14 14 14 14 16 17 20 20 18 18 19 20 20 20 23 26 27 25 26 28 28 31 33 32 29 29 29 26 27 26 21 23 24 21 22 23 27 28 24 24 24 23 22 20 21 22 23 25 26 26 25
13 13 14 14 15 14 14 14 15 17 19 20 20 22 23 24 27 26 26 26 22 22 24 23 24 24 25 26 24 24 25 23 21 20 18 18 17 16 15 15 16 18 20 21 21 21 19 21 24 24 24 26 29 32 31 31 32 31 31 32 33 33 32 31 32 34 33 28 28 28 24 25 27 29 30 28 27 29 28 27 25 23 23 24 24 26 27 26
13 13 13 13 13 13 13 13 14 16 17 18 20 22 22 20 21 21 21 25 24 19 20 21 21 22 22 22 21 21 23 22 22 22 22 21 21 20 19 18 18 21 23 21 22 24 25 26 28 30 30 30 33 37 37 36 37 37 34 32 34 36 33 35 39 41 42 39 36 33 29 30 33 32 32 30 28 29 28 28 26 25 26 25 25 26 28 30
13 13 12 12 13 13 14 14 15 16 17 19 20 20 21 21 23 22 19 24 28 23 22 21 21 22 22 21 21 19 20 20 20 22 23 22 23 22 21 22 21 23 24 24 26 28 31 32 31 34 37 35 36 39 41 41 41 41 37 34 35 37 35 38 41 43 46 45 42 38 34 37 39 36 34 32 31 31 31 29 26 25 26 26 26 27 29 31
12 12 11 12 14 14 15 16 16 17 18 18 18 19 21 22 25 24 21 26 33 31 27 26 25 26 26 25 23 21 20 19 19 20 21 22 23 21 21 23 23 24 24 27 31 32 32 31 32 38 42 39 35 38 42 42 41 44 41 36 35 37 37 39 41 46 50 50 47 42 41 47 46 38 36 34 33 34 35 34 28 24 23 22 25 28 29 31
12 10 10 11 13 14 15 16 16 16 16 16 17 18 21 25 26 27 30 38 43 39 33 30 31 30 29 28 26 23 22 21 22 24 22 21 21 21 21 22 22 25 26 27 31 32 30 28 31 38 41 40 37 37 42 40 39 43 44 39 37 37 40 41 44 48 50 49 47 42 45 53 49 39 36 34 35 35 36 36 31 23 20 19 23 25 26 28
10 10 9 8 10 11 11 13 13 15 14 13 15 17 19 23 25 29 40 50 51 44 38 35 35 32 30 32 29 26 27 27 27 28 26 22 20 20 21 22 22 22 24 27 28 29 30 29 32 38 40 42 40 37 40 41 39 39 42 42 40 39 41 43 46 48 48 47 46 43 43 48 43 35 33 32 33 33 31 34 31 25 23 22 22 23 24 25
9 9 9 9 9 8 8 9 11 13 13 13 15 16 17 21 26 33 45 54 52 46 42 39 37 33 32 32 29 28 30 28 25 26 26 24 21 19 20 23 22 20 22 25 26 29 31 31 33 36 38 39 39 38 39 43 41 37 38 38 37 38 39 42 44 46 47 44 46 48 43 41 37 30 29 29 30 30 29 30 30 27 26 25 23 23 24 25
9 9 9 10 12 11 10 9 10 12 13 15 15 16 18 22 30 38 48 56 53 45 41 39 35 34 31 29 27 27 26 24 23 25 25 24 24 21 19 19 20 21 24 24 25 29 31 31 34 36 36 37 38 38 41 42 38 36 37 33 32 34 37 41 41 42 45 41 42 46 40 37 36 27 25 26 26 28 27 27 28 27 27 26 24 24 25 26
8 9 9 11 14 16 14 13 14 14 15 15 14 17 24 31 37 43 51 56 50 40 36 33 32 31 28 26 25 26 25 24 24 24 24 24 24 21 19 19 19 20 24 26 26 29 30 30 36 37 35 36 36 37 40 38 35 35 35 31 30 34 36 37 36 37 43 39 33 35 33 32 31 23 20 23 24 27 28 26 26 26 28 28 25 25 27 27
8 9 10 10 14 17 17 18 17 15 15 13 11 16 27 37 44 49 53 50 42 35 31 30 28 26 25 25 24 24 24 24 24 22 23 24 24 21 20 21 21 21 27 31 27 27 28 28 33 33 32 34 36 37 36 31 29 30 30 28 30 34 35 37 37 36 39 39 30 30 31 29 28 25 23 26 28 30 30 28 27 27 29 30 28 28 29 29
8 9 10 10 12 14 15 16 15 13 12 11 12 17 29 41 49 52 49 38 34 35 32 28 27 24 24 24 24 23 23 24 23 22 24 25 25 25 25 25 25 26 33 33 26 28 28 27 30 30 28 29 30 32 30 26 28 29 29 29 32 37 38 39 39 32 34 38 34 34 36 33 32 30 27 30 33 34 33 32 33 35 34 32 31 32 31 31
9 10 11 11 11 12 12 12 12 12 13 13 14 21 34 44 46 48 44 33 32 35 30 26 24 23 23 23 24 23 21 24 25 23 24 25 26 28 29 32 32 29 33 33 28 30 30 29 31 30 27 28 29 32 32 31 32 32 33 36 35 37 40 41 39 32 30 31 32 38 40 37 36 33 31 33 35 38 40 38 38 40 38 34 33 33 32 32
11 13 15 14 13 14 13 12 12 12 14 16 15 23 38 44 41 43 43 35 32 30 26 23 21 20 20 20 22 21 20 23 25 25 26 26 26 27 28 32 32 29 33 36 33 33 35 37 37 35 35 34 35 39 39 37 37 34 34 38 39 39 41 45 46 40 34 31 36 44 43 42 43 40 39 38 38 43 45 42 41 42 41 37 35 33 30 29
15 17 19 17 16 17 14 13 15 15 15 16 17 26 40 44 42 41 39 35 32 29 26 25 22 22 20 17 19 20 19 23 26 27 30 29 29 30 30 31 30 29 31 34 36 35 36 41 42 41 43 42 39 40 40 42 42 38 36 37 40 44 45 48 48 45 42 41 44 45 43 47 48 44 44 43 43 46 46 44 43 43 42 39 38 36 33 31
17 19 20 19 17 17 15 14 14 16 16 16 21 30 37 43 43 37 33 33 33 30 28 26 23 23 21 17 18 19 19 24 28 29 32 34 35 35 34 33 32 33 32 34 38 37 33 37 39 38 41 43 42 40 39 43 47 45 39 35 38 44 46 47 47 49 49 48 48 45 42 46 43 40 46 45 45 48 48 47 46 44 44 42 41 41 40 37
16 16 19 20 17 16 18 15 13 15 17 19 25 30 35 41 40 33 29 30 30 30 28 28 25 20 19 19 19 20 20 23 26 28 32 38 40 38 36 34 33 35 37 37 41 42 39 40 38 33 36 40 40 38 35 36 45 50 45 39 40 42 44 46 48 52 51 48 49 44 39 43 42 39 44 46 46 49 48 49 50 48 46 45 45 45 43 42
17 16 18 20 18 18 19 17 14 15 17 22 28 30 35 39 34 29 28 26 27 28 26 26 23 17 15 18 20 20 22 25 24 27 33 36 38 39 37 36 36 37 39 38 41 43 44 45 41 34 37 41 40 39 38 37 41 48 48 47 47 47 49 50 50 53 54 53 53 46 40 42 43 43 47 45 44 47 48 47 46 46 45 45 47 46 44 44
18 18 19 21 22 20 18 16 14 16 21 28 32 33 38 37 32 30 29 27 28 28 27 26 22 18 16 18 20 19 21 27 27 27 31 34 37 41 39 39 41 40 39 40 42 44 43 45 43 37 36 41 42 42 45 45 43 42 43 43 46 50 53 54 55 56 57 59 58 52 44 40 41 46 49 45 42 45 48 46 44 43 43 45 48 47 46 46
15 18 22 25 23 20 16 14 13 17 28 35 38 39 38 34 31 31 31 30 30 29 28 25 20 18 18 17 19 18 19 24 27 28 33 34 34 37 39 41 43 43 42 42 45 49 48 46 46 43 37 39 45 48 49 50 48 45 42 39 40 44 45 46 50 52 56 62 64 57 46 39 42 45 43 41 41 41 44 48 48 44 40 42 46 47 47 46
15 19 24 22 20 20 17 14 15 24 35 39 38 36 33 29 30 31 31 29 29 27 25 22 19 19 19 17 18 18 18 19 22 25 32 34 35 37 38 39 41 43 46 47 49 54 52 47 49 49 39 37 45 49 48 49 49 49 49 48 46 46 45 43 44 45 51 61 67 62 49 40 40 41 39 40 41 39 40 45 47 43 40 42 43 44 45 43
17 25 28 21 18 20 17 15 21 32 39 39 34 29 27 25 26 27 28 28 26 24 21 21 20 20 20 19 19 19 18 18 18 20 25 29 35 42 44 42 40 41 48 52 54 56 56 55 58 55 45 41 44 43 42 43 44 45 46 47 49 51 51 51 51 50 50 54 57 57 52 43 39 41 43 46 48 45 41 41 42 42 42 44 43 40 40 41
17 25 28 21 17 18 16 19 28 32 32 30 27 25 24 23 23 24 25 24 21 19 19 20 21 21 21 21 20 19 19 20 19 20 21 23 27 35 41 42 40 40 46 50 50 51 54 58 58 54 50 46 43 39 36 36 38 40 41 42 43 48 51 54 59 59 55 52 49 51 50 41 38 44 47 49 53 52 48 46 46 45 44 43 42 39 38 39
17 21 23 19 16 16 16 22 30 30 26 23 22 22 21 21 22 21 20 18 18 20 21 20 19 21 22 22 21 20 21 22 21 20 21 21 21 27 32 33 34 39 43 46 46 45 46 49 48 48 49 46 41 39 37 35 34 36 39 39 36 39 43 47 54 57 55 52 49 51 50 40 38 48 50 48 51 54 53 52 49 48 47 44 42 40 39 40
18 19 20 19 18 19 19 22 25 26 24 21 20 20 20 20 20 18 16 16 19 22 23 21 21 21 22 22 21 21 22 24 24 22 23 23 23 26 30 30 31 35 37 41 43 41 41 46 47 47 49 49 45 45 42 40 36 33 33 35 32 32 36 41 49 53 54 52 50 54 55 45 39 43 45 46 50 54 56 53 49 48 46 44 41 37 33 35
18 19 20 19 20 21 22 22 22 24 25 21 21 21 19 18 17 16 15 15 19 21 22 23 23 23 23 23 23 24 23 25 28 27 26 27 27 28 30 31 32 36 37 37 38 36 38 44 45 44 49 52 52 50 45 42 39 34 31 33 32 33 35 40 46 49 51 53 51 51 52 44 37 37 37 39 42 45 49 50 48 47 46 43 39 32 30 31
20 22 22 21 21 22 24 24 24 27 28 25 25 23 19 17 16 15 15 18 22 23 23 25 25 25 27 28 29 30 28 29 32 33 32 33 32 31 32 31 32 37 40 39 38 40 41 42 42 44 46 46 46 46 43 39 36 33 33 31 33 40 43 44 45 45 49 53 48 47 47 41 35 34 35 37 37 38 40 39 40 43 43 38 33 32 33 33
21 23 23 22 21 22 25 26 27 30 29 26 27 25 22 23 21 19 20 22 25 26 28 30 30 31 33 35 36 37 37 38 39 40 42 41 38 36 34 33 34 37 42 42 42 45 44 40 43 46 43 41 42 41 40 37 34 32 31 28 31 41 47 47 47 45 48 51 46 44 46 42 35 32 36 39 39 38 36 34 35 38 38 34 31 32 33 29
22 23 23 22 22 24 25 25 26 27 25 25 29 29 29 30 30 30 29 29 30 31 34 39 39 38 39 40 41 42 44 48 48 47 47 44 42 41 39 39 39 39 43 47 48 50 48 45 48 48 44 46 46 43 41 40 37 35 34 32 34 39 41 42 45 46 47 46 43 41 42 42 36 33 36 37 36 35 36 36 35 34 34 33 32 31 29 24
23 25 24 22 23 24 24 23 23 25 26 29 33 35 34 35 36 35 33 34 39 38 38 44 46 46 45 44 46 48 49 52 53 52 48 45 45 47 46 48 48 45 47 52 55 56 54 56 59 53 48 50 50 47 45 42 41 37 34 36 39 40 40 40 41 43 42 41 41 40 41 43 40 37 38 38 39 40 40 41 40 38 37 35 31 28 26 24
25 28 27 26 27 25 24 25 24 27 30 32 35 37 36 36 37 36 35 39 43 44 44 48 50 49 50 50 50 50 48 49 51 51 48 46 49 50 51 52 51 50 52 56 61 61 60 66 69 61 58 60 57 52 49 47 46 40 34 37 41 41 42 42 40 40 38 38 39 38 39 42 43 40 41 41 43 44 44 44 43 41 39 36 33 31 30 28
25 29 29 31 33 29 28 29 28 32 36 36 38 40 40 41 40 40 42 44 44 46 48 48 50 51 52 54 53 49 46 46 48 48 47 48 49 49 50 51 51 53 56 60 64 65 64 70 73 70 71 71 64 57 54 53 49 40 36 40 41 40 40 38 39 40 38 37 37 36 39 43 43 42 44 45 46 47 47 46 44 41 38 36 36 35 34 33
25 28 29 32 36 35 34 35 34 37 40 40 43 46 47 47 46 46 51 51 48 49 50 48 50 53 54 56 55 50 48 47 46 46 47 48 48 47 47 48 49 51 55 58 62 68 71 73 75 78 80 76 68 62 61 60 54 43 43 45 41 38 39 38 40 43 41 40 41 42 45 45 43 44 47 48 49 48 46 43 41 39 38 38 37 36 35 34